Skip Page Navigation
NASA JPL Caltech
NASA Logo - Jet Propulsion Laboratory + View the NASA Portal
+ Near-Earth Object (NEO) Program
Search JPL
JPL Home Earth Solar System Stars & Galaxies Technology
JPL Solar System Dynamics
BODIES ORBITS EPHEMERIDES TOOLS PHYSICAL DATA DISCOVERY FAQ SITE MAP
JPL Small-Body Database Browser
Search: [ help ]  
110288 Libai (2001 SL262)
Classification: Main-belt Asteroid          SPK-ID: 2110288
Ephemeris | Orbit Diagram | Orbital Elements | Physical Parameters | Discovery Circumstances | Close-Approach Data ]

[ show orbit diagram ]
Orbital Elements at Epoch 2457000.5 (2014-Dec-09.0) TDB
Reference: JPL 7 (heliocentric ecliptic J2000)
 Element Value Uncertainty (1-sigma)   Units 
e .2109661622090635 7.428e-08  
a 2.37550000508277 1.27e-08 AU
q 1.874349885682847 1.774e-07 AU
i 2.908983241710617 5.376e-06 deg
node 131.24583591 0.00014316 deg
peri 258.8505775595495 0.00014404 deg
M 217.0537539491354 1.3657e-05 deg
tp 2457531.508208194650
(2016-May-23.00820819)
5.2257e-05 JED
period 1337.306576641771
3.66
1.0724e-05
2.936e-08
d
yr
n .2691978087059348 2.1588e-09 deg/d
Q 2.876650124482693 1.5379e-08 AU
  Orbit Determination Parameters
   # obs. used (total)      523  
   data-arc span      8586 days (23.51 yr)  
   first obs. used      1990-10-20  
   last obs. used      2014-04-23  
   planetary ephem.      DE431  
   SB-pert. ephem.      SB431-BIG16  
   condition code      0  
   fit RMS      .58226  
   data source      ORB  
   producer      Otto Matic  
   solution date      2014-Jun-10 22:30:33  

Additional Information
 Earth MOID = .882022 AU 
 T_jup = 3.510 
[ show covariance matrix ]

Ephemeris | Orbit Diagram | Orbital Elements | Physical Parameters | Discovery Circumstances | Close-Approach Data ]

Physical Parameter Table
Parameter Symbol Value Units Sigma Reference Notes
absolute magnitude H 15.6 mag n/a MPO257516  

110288 Libai           Discovered 2001 Sept. 23 by W. K. Y. Yeung at the Desert Eagle Observatory.
Chinese poet Li Bai (701-762) belonged to the group of scholars known as the "Eight Immortals of the Wine Cup" in a poem by fellow poet Du Fu. Li Bai is often regarded, along with Du Fu, as one of the two greatest poets in China's literary history.
NOTE: some special characters may not display properly (any characters within {} are an attempt to place the proper accent above a character)
Reference: 20080520/MPCPages.arcLast Updated: 2008-05-22

[ show close-approach data ]
Alternate Designations
 2001 SL262 = 1990 UD10 = 1990 UJ8 
Ephemeris | Orbit Diagram | Orbital Elements | Physical Parameters | Discovery Circumstances | Close-Approach Data ]
ABOUT SSD CREDITS/AWARDS PRIVACY/COPYRIGHT GLOSSARY LINKS
FirstGov 2014-Sep-20 16:01 UT
(server date/time)  
NASA Home Page
Site Manager:   Donald K. Yeomans
Webmaster  Alan B. Chamberlin